TimeEDT,TemperatureF,Dew PointF,Humidity,Sea Level PressureIn,VisibilityMPH,Wind Direction,Wind SpeedMPH,Gust SpeedMPH,PrecipitationIn,Events,Conditions,WindDirDegrees,DateUTC
12:54 AM,46.9,46.0,97,30.19,10.0,North,5.8,-,N/A,,Scattered Clouds,360,2012-10-08 04:54:00
1:54 AM,46.0,45.0,96,30.19,8.0,North,5.8,-,N/A,,Partly Cloudy,350,2012-10-08 05:54:00
2:54 AM,45.0,44.1,97,30.19,10.0,North,4.6,-,N/A,,Clear,350,2012-10-08 06:54:00
3:54 AM,46.0,44.1,93,30.20,10.0,North,8.1,-,N/A,,Scattered Clouds,10,2012-10-08 07:54:00
4:54 AM,46.0,43.0,89,30.22,10.0,NNE,8.1,-,N/A,,Mostly Cloudy,20,2012-10-08 08:54:00
5:54 AM,46.0,42.1,86,30.23,10.0,North,8.1,-,N/A,,Overcast,10,2012-10-08 09:54:00
6:54 AM,46.9,41.0,80,30.25,10.0,NNE,4.6,-,N/A,,Overcast,20,2012-10-08 10:54:00
7:54 AM,46.9,42.1,83,30.26,10.0,North,8.1,-,N/A,,Overcast,360,2012-10-08 11:54:00
8:54 AM,46.9,42.1,83,30.30,8.0,North,5.8,-,0.01,Rain,Light Rain,10,2012-10-08 12:54:00
9:54 AM,48.0,44.1,86,30.29,10.0,North,8.1,-,0.01,,Overcast,360,2012-10-08 13:54:00
10:54 AM,48.9,45.0,86,30.28,10.0,NNE,9.2,-,0.00,,Overcast,30,2012-10-08 14:54:00
11:54 AM,48.9,45.0,86,30.29,10.0,North,6.9,-,0.00,,Overcast,360,2012-10-08 15:54:00
12:54 PM,50.0,45.0,83,30.28,10.0,NNE,6.9,-,N/A,,Overcast,20,2012-10-08 16:54:00
1:54 PM,50.0,46.0,86,30.26,10.0,North,6.9,-,N/A,,Overcast,360,2012-10-08 17:54:00
2:54 PM,50.0,46.9,89,30.25,9.0,North,8.1,-,0.04,Rain,Light Rain,10,2012-10-08 18:54:00
3:54 PM,50.0,48.0,93,30.23,10.0,North,11.5,-,0.02,,Overcast,360,2012-10-08 19:54:00
4:54 PM,51.1,48.0,89,30.20,10.0,NNE,8.1,-,N/A,,Overcast,20,2012-10-08 20:54:00
5:54 PM,51.1,46.9,86,30.20,10.0,NNE,9.2,-,N/A,,Overcast,20,2012-10-08 21:54:00
6:54 PM,50.0,46.9,89,30.21,10.0,NNE,8.1,-,N/A,,Overcast,20,2012-10-08 22:54:00
7:54 PM,50.0,46.9,89,30.20,10.0,North,8.1,-,N/A,,Overcast,360,2012-10-08 23:54:00
8:54 PM,50.0,46.9,89,30.21,10.0,North,8.1,-,N/A,,Overcast,360,2012-10-09 00:54:00
9:54 PM,50.0,46.9,89,30.20,10.0,North,6.9,-,N/A,,Overcast,360,2012-10-09 01:54:00
10:54 PM,50.0,46.0,86,30.20,10.0,NNW,8.1,-,N/A,,Overcast,340,2012-10-09 02:54:00
11:29 PM,50.0,46.4,87,30.17,10.0,NNW,8.1,-,N/A,,Overcast,340,2012-10-09 03:29:00
11:54 PM,50.0,46.0,86,30.18,10.0,NNW,8.1,-,0.00,Rain,Light Rain,340,2012-10-09 03:54:00